User: anonymous   Login
Location: Burgwalden
(48.2830°N, 10.7576°E)
Time: 12:01:26
(UTC+00:00)
Language:

RESURS DK-1 - Orbit

View from above orbital plane
View from above orbital plane
View from above satellite
View from above satellite

Ground track
Ground track

The orbit data is extracted from the following two-line orbital elements,

1 29228U 06021A   24056.90241523  .00003741  00000-0  25961-3 0  9996
2 29228  69.9381 349.5488 0006024 222.5396 137.5301 15.06464907975400
Epoch (UTC): 25 February 2024 21:39:28
Eccentricity: 0.0006024
inclination: 69.9381°
perigee height: 543 km
apogee height: 551 km
right ascension of ascending node: 349.5488°
argument of perigee: 222.5396°
revolutions per day: 15.06464907
mean anomaly at epoch: 137.5301°
orbit number at epoch: 97540

The dashed part of the orbit path shows where the satellite is in the earth's shadow,  

DLR